Location: Angwan Shehu
(11.2514°N, 7.4613°E)
Time: 01:29:58
(UTC+00:00)

Transit 2A Rocket - All Passes

Search period start: 21 April 2021 00:00
Search period end: 01 May 2021 00:00
Orbit: 594 x 908 km, 66.7° (Epoch: 20 April)

Date Brightness Start Highest point End Pass type
(mag) Time Alt. Az. Time Alt. Az. Time Alt. Az.
21 Apr - 00:42:55 10° NNW 00:47:50 81° WSW 00:53:16 10° SSE night (unlit)
21 Apr - 13:20:08 10° SSW 13:25:07 67° WNW 13:29:41 10° NNE daylight
22 Apr - 00:00:34 10° N 00:05:18 47° ENE 00:10:28 10° SE night (unlit)
22 Apr - 01:46:28 10° W 01:47:40 11° WSW 01:48:54 10° WSW night (unlit)
22 Apr - 12:37:40 10° S 12:42:34 53° ESE 12:47:04 10° NNE daylight
22 Apr - 23:18:54 10° NNE 23:22:45 22° ENE 23:26:51 10° ESE night (unlit)
23 Apr - 01:01:05 10° WNW 01:05:05 23° WSW 01:09:21 10° SSW night (unlit)
23 Apr - 11:56:00 10° SSE 11:59:59 24° ESE 12:03:44 10° ENE daylight
23 Apr - 13:39:00 10° WSW 13:42:17 18° WNW 13:45:24 10° NNW daylight
23 Apr - 22:39:27 10° ENE 22:40:09 10° ENE 22:40:51 10° ENE night (unlit)
24 Apr - 00:17:41 10° NW 00:22:29 49° WSW 00:27:45 10° S night (unlit)
24 Apr - 11:16:22 10° ESE 11:17:24 11° ESE 11:18:25 10° E daylight
24 Apr - 12:55:08 10° SW 12:59:44 39° WNW 13:03:59 10° N daylight
24 Apr - 23:34:58 10° NNW 23:39:56 78° ENE 23:45:24 10° SSE night (unlit)
25 Apr - 12:12:12 10° SSW 12:17:11 90° WNW 12:21:46 10° NNE daylight
25 Apr - 22:52:50 10° N 22:57:23 36° ENE 23:02:20 10° SE night (unlit)
26 Apr - 00:36:57 10° WNW 00:39:44 15° WSW 00:42:40 10° SW night (unlit)
26 Apr - 11:29:59 10° S 11:34:38 39° ESE 11:38:55 10° NE daylight
26 Apr - 13:16:12 10° WNW 13:16:57 10° WNW 13:17:40 10° WNW daylight
26 Apr - 22:11:31 10° NNE 22:14:49 18° ENE 22:18:18 10° ESE night (unlit)
26 Apr - 23:52:43 10° NW 23:57:09 30° WSW 00:01:56 10° S night (unlit)
27 Apr - 10:48:43 10° SSE 10:52:03 18° ESE 10:55:12 10° ENE daylight
27 Apr - 12:30:30 10° WSW 12:34:21 23° WNW 12:37:59 10° NNW daylight
27 Apr - 23:09:36 10° NNW 23:14:34 65° WSW 23:20:02 10° S night (unlit)
28 Apr - 11:47:01 10° SW 11:51:48 52° WNW 11:56:13 10° N daylight
28 Apr - 22:27:05 10° N 22:32:01 60° ENE 22:37:25 10° SSE night (unlit)
29 Apr - 11:04:21 10° SSW 11:09:16 67° ESE 11:13:46 10° NNE daylight
29 Apr - 21:45:12 10° N 21:49:29 28° ENE 21:54:05 10° SE night (unlit)
29 Apr - 23:28:10 10° WNW 23:31:49 19° WSW 23:35:40 10° SSW night (unlit)
30 Apr - 10:22:25 10° S 10:26:41 29° ESE 10:30:40 10° NE daylight
30 Apr - 12:06:32 10° W 12:08:58 14° WNW 12:11:21 10° NW daylight
30 Apr - 21:04:25 10° NE 21:06:53 14° ENE 21:09:27 10° E night (unlit)
30 Apr - 22:44:29 10° NW 22:49:13 40° WSW 22:54:23 10° S night (unlit)
